Time,TemperatureF,DewpointF,PressureIn,WindDirection,WindDirectionDegrees,WindSpeedMPH,WindSpeedGustMPH,Humidity,HourlyPrecipIn,Conditions,Clouds,dailyrainin,SoftwareType,DateUTC
2013-01-14 00:00:00,70.4,64.3,30.16,SE,139,0.0,1.0,81,0.00,,SCT031,0.00,VWS V14.01,2013-01-14 05:00:00,
2013-01-14 00:01:00,70.3,64.2,30.16,SE,139,0.0,0.0,81,0.00,,CLR,0.00,VWS V14.01,2013-01-14 05:01:00,
2013-01-14 00:03:00,70.3,64.2,30.15,SE,139,0.0,0.0,81,0.00,,CLR,0.00,VWS V14.01,2013-01-14 05:03:00,
2013-01-14 00:08:00,70.2,64.1,30.15,SE,139,0.0,0.0,81,0.00,,CLR,0.00,VWS V14.01,2013-01-14 05:08:00,
2013-01-14 00:13:00,70.0,63.9,30.16,SE,138,0.0,0.0,81,0.00,,CLR,0.00,VWS V14.01,2013-01-14 05:13:00,
2013-01-14 00:18:00,69.8,64.1,30.16,SE,137,0.0,0.0,82,0.00,,CLR,0.00,VWS V14.01,2013-01-14 05:18:00,
2013-01-14 00:23:00,69.6,63.9,30.16,SE,135,0.0,0.0,82,0.00,,CLR,0.00,VWS V14.01,2013-01-14 05:23:00,
2013-01-14 00:28:00,69.5,63.8,30.15,SE,137,0.0,0.0,82,0.00,,CLR,0.00,VWS V14.01,2013-01-14 05:28:00,
2013-01-14 00:33:00,69.3,63.9,30.15,SE,134,0.0,0.0,83,0.00,,CLR,0.00,VWS V14.01,2013-01-14 05:33:00,
2013-01-14 00:38:00,69.1,63.7,30.16,SE,136,0.0,0.0,83,0.00,,CLR,0.00,VWS V14.01,2013-01-14 05:38:00,
2013-01-14 00:43:00,69.0,63.6,30.15,SE,135,0.0,0.0,83,0.00,,CLR,0.00,VWS V14.01,2013-01-14 05:43:00,
2013-01-14 00:48:00,68.8,63.4,30.15,SE,134,0.0,0.0,83,0.00,,CLR,0.00,VWS V14.01,2013-01-14 05:48:00,
2013-01-14 00:53:00,68.7,63.3,30.16,SE,136,0.0,0.0,83,0.00,,CLR,0.00,VWS V14.01,2013-01-14 05:53:00,
2013-01-14 00:58:00,68.5,63.1,30.17,SE,135,0.0,0.0,83,0.00,,CLR,0.00,VWS V14.01,2013-01-14 05:58:00,
2013-01-14 01:03:00,68.3,62.9,30.17,SE,136,0.0,0.0,83,0.00,,CLR,0.00,VWS V14.01,2013-01-14 06:03:00,
2013-01-14 01:08:00,68.2,62.8,30.16,SE,136,0.0,0.0,83,0.00,,CLR,0.00,VWS V14.01,2013-01-14 06:08:00,
2013-01-14 01:13:00,68.0,63.0,30.15,SE,136,0.0,0.0,84,0.00,,CLR,0.00,VWS V14.01,2013-01-14 06:13:00,
2013-01-14 01:18:00,67.9,62.5,30.16,SE,137,0.0,0.0,83,0.00,,CLR,0.00,VWS V14.01,2013-01-14 06:18:00,
2013-01-14 01:23:00,67.8,62.8,30.16,SE,137,0.0,0.0,84,0.00,,CLR,0.00,VWS V14.01,2013-01-14 06:23:00,
2013-01-14 01:28:00,67.6,62.6,30.16,SE,136,0.0,0.0,84,0.00,,CLR,0.00,VWS V14.01,2013-01-14 06:28:00,
2013-01-14 01:33:00,67.5,62.5,30.16,SE,136,0.0,0.0,84,0.00,,CLR,0.00,VWS V14.01,2013-01-14 06:33:00,
2013-01-14 01:38:00,67.4,62.4,30.16,SE,135,0.0,0.0,84,0.00,,CLR,0.00,VWS V14.01,2013-01-14 06:38:00,
2013-01-14 01:43:00,67.3,62.6,30.16,SE,133,0.0,0.0,85,0.00,,CLR,0.00,VWS V14.01,2013-01-14 06:43:00,
2013-01-14 01:48:00,67.1,62.1,30.16,SE,135,0.0,0.0,84,0.00,,CLR,0.00,VWS V14.01,2013-01-14 06:48:00,
2013-01-14 01:53:00,66.9,61.9,30.16,SE,134,0.0,0.0,84,0.00,,CLR,0.00,VWS V14.01,2013-01-14 06:53:00,
2013-01-14 01:58:00,66.8,61.8,30.17,SE,136,0.0,0.0,84,0.00,,CLR,0.00,VWS V14.01,2013-01-14 06:58:00,
2013-01-14 02:03:00,66.6,62.0,30.16,SE,135,0.0,0.0,85,0.00,,CLR,0.00,VWS V14.01,2013-01-14 07:03:00,
2013-01-14 02:08:00,66.4,61.8,30.17,SE,134,0.0,0.0,85,0.00,,CLR,0.00,VWS V14.01,2013-01-14 07:08:00,
2013-01-14 02:13:00,66.3,62.0,30.16,SE,134,0.0,0.0,86,0.00,,CLR,0.00,VWS V14.01,2013-01-14 07:13:00,
2013-01-14 02:18:00,66.2,61.9,30.15,SE,134,0.0,0.0,86,0.00,,CLR,0.00,VWS V14.01,2013-01-14 07:18:00,
2013-01-14 02:23:00,66.1,61.5,30.16,SE,137,0.0,0.0,85,0.00,,CLR,0.00,VWS V14.01,2013-01-14 07:23:00,
2013-01-14 02:28:00,66.0,61.7,30.16,SE,131,0.0,0.0,86,0.00,,CLR,0.00,VWS V14.01,2013-01-14 07:28:00,
2013-01-14 02:33:00,65.9,61.6,30.16,SE,134,0.0,0.0,86,0.00,,CLR,0.00,VWS V14.01,2013-01-14 07:33:00,
2013-01-14 02:38:00,65.8,61.5,30.16,SE,133,0.0,0.0,86,0.00,,CLR,0.00,VWS V14.01,2013-01-14 07:38:00,
2013-01-14 02:43:00,65.8,61.5,30.16,SE,136,0.0,0.0,86,0.00,,CLR,0.00,VWS V14.01,2013-01-14 07:43:00,
2013-01-14 02:48:00,65.6,61.3,30.15,SE,133,0.0,0.0,86,0.00,,CLR,0.00,VWS V14.01,2013-01-14 07:48:00,
2013-01-14 02:53:00,65.5,61.5,30.16,SE,133,0.0,0.0,87,0.00,,CLR,0.00,VWS V14.01,2013-01-14 07:53:00,
2013-01-14 02:58:00,65.4,61.1,30.16,SE,135,0.0,0.0,86,0.00,,CLR,0.00,VWS V14.01,2013-01-14 07:58:00,
2013-01-14 03:03:00,65.3,61.3,30.15,SE,134,0.0,0.0,87,0.00,,CLR,0.00,VWS V14.01,2013-01-14 08:03:00,
2013-01-14 03:08:00,65.2,60.9,30.15,SE,133,0.0,0.0,86,0.00,,CLR,0.00,VWS V14.01,2013-01-14 08:08:00,
2013-01-14 03:13:00,65.1,60.8,30.15,SE,136,0.0,0.0,86,0.00,,CLR,0.00,VWS V14.01,2013-01-14 08:13:00,
2013-01-14 03:18:00,64.9,60.9,30.15,SE,136,0.0,0.0,87,0.00,,CLR,0.00,VWS V14.01,2013-01-14 08:18:00,
2013-01-14 03:23:00,64.8,60.5,30.16,SE,135,0.0,0.0,86,0.00,,CLR,0.00,VWS V14.01,2013-01-14 08:23:00,
2013-01-14 03:28:00,64.7,60.4,30.15,SE,135,0.0,0.0,86,0.00,,CLR,0.00,VWS V14.01,2013-01-14 08:28:00,
2013-01-14 03:33:00,64.5,60.2,30.15,SE,133,0.0,0.0,86,0.00,,CLR,0.00,VWS V14.01,2013-01-14 08:33:00,
2013-01-14 03:38:00,64.3,60.0,30.15,SE,132,0.0,0.0,86,0.00,,CLR,0.00,VWS V14.01,2013-01-14 08:38:00,
2013-01-14 03:43:00,64.3,60.0,30.16,SE,135,0.0,0.0,86,0.00,,CLR,0.00,VWS V14.01,2013-01-14 08:43:00,
2013-01-14 03:48:00,64.1,60.2,30.15,SE,132,0.0,0.0,87,0.00,,CLR,0.00,VWS V14.01,2013-01-14 08:48:00,
2013-01-14 03:53:00,64.0,60.4,30.15,SE,129,0.0,0.0,88,0.00,,CLR,0.00,VWS V14.01,2013-01-14 08:53:00,
2013-01-14 03:58:00,64.0,60.4,30.17,SE,133,0.0,0.0,88,0.00,,CLR,0.00,VWS V14.01,2013-01-14 08:58:00,
2013-01-14 04:03:00,63.9,60.0,30.15,SE,134,0.0,0.0,87,0.00,,CLR,0.00,VWS V14.01,2013-01-14 09:03:00,
2013-01-14 04:08:00,63.8,60.2,30.16,SE,134,0.0,0.0,88,0.00,,CLR,0.00,VWS V14.01,2013-01-14 09:08:00,
2013-01-14 04:13:00,63.7,59.8,30.15,SE,135,0.0,0.0,87,0.00,,CLR,0.00,VWS V14.01,2013-01-14 09:13:00,
2013-01-14 04:18:00,63.7,60.4,30.16,SE,128,0.0,0.0,89,0.00,,CLR,0.00,VWS V14.01,2013-01-14 09:18:00,
2013-01-14 04:23:00,63.5,59.9,30.15,SE,139,0.0,0.0,88,0.00,,CLR,0.00,VWS V14.01,2013-01-14 09:23:00,
2013-01-14 04:28:00,63.5,59.2,30.15,SE,139,0.0,0.0,86,0.00,,CLR,0.00,VWS V14.01,2013-01-14 09:28:00,
2013-01-14 04:33:00,63.4,59.2,30.15,SE,139,0.0,0.0,86,0.00,,CLR,0.00,VWS V14.01,2013-01-14 09:33:00,
2013-01-14 04:38:00,63.3,59.4,30.15,SE,138,0.0,0.0,87,0.00,,CLR,0.00,VWS V14.01,2013-01-14 09:38:00,
2013-01-14 04:43:00,63.2,59.3,30.16,SE,139,0.0,0.0,87,0.00,,CLR,0.00,VWS V14.01,2013-01-14 09:43:00,
2013-01-14 04:48:00,63.1,59.2,30.15,SE,139,0.0,0.0,87,0.00,,CLR,0.00,VWS V14.01,2013-01-14 09:48:00,
2013-01-14 04:53:00,63.0,59.1,30.15,SE,139,0.0,0.0,87,0.00,,CLR,0.00,VWS V14.01,2013-01-14 09:53:00,
2013-01-14 04:58:00,63.0,59.4,30.16,SE,138,0.0,0.0,88,0.00,,CLR,0.00,VWS V14.01,2013-01-14 09:58:00,
2013-01-14 05:03:00,63.0,59.4,30.16,SE,135,0.0,0.0,88,0.00,,CLR,0.00,VWS V14.01,2013-01-14 10:03:00,
2013-01-14 05:08:00,62.9,59.3,30.16,SE,136,0.0,0.0,88,0.00,,CLR,0.00,VWS V14.01,2013-01-14 10:08:00,
2013-01-14 05:13:00,62.9,59.3,30.16,SE,135,0.0,0.0,88,0.00,,CLR,0.00,VWS V14.01,2013-01-14 10:13:00,
2013-01-14 05:18:00,62.8,59.5,30.16,SE,128,0.0,0.0,89,0.00,,CLR,0.00,VWS V14.01,2013-01-14 10:18:00,
2013-01-14 05:23:00,62.7,59.4,30.16,SE,130,0.0,0.0,89,0.00,,CLR,0.00,VWS V14.01,2013-01-14 10:23:00,
2013-01-14 05:28:00,62.6,59.3,30.16,SE,127,0.0,0.0,89,0.00,,CLR,0.00,VWS V14.01,2013-01-14 10:28:00,
2013-01-14 05:33:00,62.4,58.5,30.16,SE,139,0.0,0.0,87,0.00,,CLR,0.00,VWS V14.01,2013-01-14 10:33:00,
2013-01-14 05:38:00,62.2,58.3,30.15,SE,139,0.0,0.0,87,0.00,,CLR,0.00,VWS V14.01,2013-01-14 10:38:00,
2013-01-14 05:43:00,62.1,58.2,30.16,SE,139,0.0,0.0,87,0.00,,CLR,0.00,VWS V14.01,2013-01-14 10:43:00,
2013-01-14 05:48:00,62.1,58.5,30.16,SE,139,0.0,0.0,88,0.00,,CLR,0.00,VWS V14.01,2013-01-14 10:48:00,
2013-01-14 05:53:00,62.1,58.5,30.15,SE,139,0.0,0.0,88,0.00,,CLR,0.00,VWS V14.01,2013-01-14 10:53:00,
2013-01-14 05:58:00,62.1,58.5,30.15,SE,139,0.0,0.0,88,0.00,,CLR,0.00,VWS V14.01,2013-01-14 10:58:00,
2013-01-14 06:03:00,62.0,58.4,30.15,SE,139,0.0,0.0,88,0.00,,CLR,0.00,VWS V14.01,2013-01-14 11:03:00,
2013-01-14 06:08:00,62.1,58.5,30.15,SE,139,0.0,0.0,88,0.00,,CLR,0.00,VWS V14.01,2013-01-14 11:08:00,
2013-01-14 06:13:00,62.1,58.5,30.15,SE,139,0.0,0.0,88,0.00,,CLR,0.00,VWS V14.01,2013-01-14 11:13:00,
2013-01-14 06:18:00,62.1,58.5,30.15,SE,139,0.0,0.0,88,0.00,,CLR,0.00,VWS V14.01,2013-01-14 11:18:00,
2013-01-14 06:23:00,62.1,58.5,30.15,SE,139,0.0,0.0,88,0.00,,CLR,0.00,VWS V14.01,2013-01-14 11:23:00,
2013-01-14 06:28:00,62.1,58.5,30.15,SE,139,0.0,0.0,88,0.00,,CLR,0.00,VWS V14.01,2013-01-14 11:28:00,
2013-01-14 06:33:00,62.2,58.9,30.15,SE,138,0.0,2.0,89,0.00,,CLR,0.00,VWS V14.01,2013-01-14 11:33:00,
2013-01-14 06:38:00,62.2,58.9,30.15,SE,133,0.0,2.0,89,0.00,,CLR,0.00,VWS V14.01,2013-01-14 11:38:00,
2013-01-14 06:43:00,62.2,59.2,30.15,SE,132,0.0,2.0,90,0.00,,CLR,0.00,VWS V14.01,2013-01-14 11:43:00,
2013-01-14 06:48:00,62.2,59.2,30.16,SE,130,0.0,2.0,90,0.00,,CLR,0.00,VWS V14.01,2013-01-14 11:48:00,
2013-01-14 06:53:00,62.3,59.0,30.15,SE,136,0.0,2.0,89,0.00,,CLR,0.00,VWS V14.01,2013-01-14 11:53:00,
2013-01-14 06:58:00,62.3,59.0,30.16,SE,136,0.0,2.0,89,0.00,,CLR,0.00,VWS V14.01,2013-01-14 11:58:00,
2013-01-14 07:03:00,62.2,58.9,30.15,SE,135,0.0,0.0,89,0.00,,CLR,0.00,VWS V14.01,2013-01-14 12:03:00,
2013-01-14 07:08:00,62.2,58.9,30.16,SE,138,0.0,0.0,89,0.00,,CLR,0.00,VWS V14.01,2013-01-14 12:08:00,
2013-01-14 07:13:00,62.2,59.2,30.16,SE,137,0.0,0.0,90,0.00,,CLR,0.00,VWS V14.01,2013-01-14 12:13:00,
2013-01-14 07:18:00,62.0,59.0,30.16,SE,137,0.0,0.0,90,0.00,,CLR,0.00,VWS V14.01,2013-01-14 12:18:00,
2013-01-14 07:23:00,61.9,58.9,30.16,SE,137,0.0,0.0,90,0.00,,CLR,0.00,VWS V14.01,2013-01-14 12:23:00,
2013-01-14 07:28:00,61.9,59.2,30.16,SE,137,0.0,0.0,91,0.00,,CLR,0.00,VWS V14.01,2013-01-14 12:28:00,
2013-01-14 07:33:00,61.9,59.5,30.16,SE,137,0.0,0.0,92,0.00,,CLR,0.00,VWS V14.01,2013-01-14 12:33:00,
2013-01-14 07:38:00,61.9,59.5,30.16,SE,137,0.0,0.0,92,0.00,,CLR,0.00,VWS V14.01,2013-01-14 12:38:00,
2013-01-14 07:43:00,62.0,59.7,30.17,SE,137,0.0,0.0,92,0.00,,CLR,0.00,VWS V14.01,2013-01-14 12:43:00,
2013-01-14 07:48:00,62.1,59.8,30.17,SE,137,0.0,0.0,92,0.00,,CLR,0.00,VWS V14.01,2013-01-14 12:48:00,
2013-01-14 07:53:00,62.3,60.2,30.17,SE,136,0.0,0.0,93,0.00,,CLR,0.00,VWS V14.01,2013-01-14 12:53:00,
2013-01-14 07:58:00,62.5,60.5,30.17,SE,136,0.0,0.0,93,0.00,,CLR,0.00,VWS V14.01,2013-01-14 12:58:00,
2013-01-14 08:03:00,62.6,60.5,30.17,SE,136,0.0,0.0,93,0.00,,FEW025,0.00,VWS V14.01,2013-01-14 13:03:00,
2013-01-14 08:08:00,62.9,61.2,30.18,SE,132,0.0,0.0,94,0.00,,FEW025,0.00,VWS V14.01,2013-01-14 13:08:00,
2013-01-14 08:13:00,63.4,61.7,30.17,SE,139,0.0,0.0,94,0.00,,FEW025,0.00,VWS V14.01,2013-01-14 13:13:00,
2013-01-14 08:18:00,63.9,62.4,30.18,SE,138,0.0,0.0,95,0.00,,FEW025,0.00,VWS V14.01,2013-01-14 13:18:00,
2013-01-14 08:23:00,64.4,62.9,30.18,SE,139,0.0,1.0,95,0.00,,FEW025,0.00,VWS V14.01,2013-01-14 13:23:00,
2013-01-14 08:28:00,65.0,63.5,30.17,SE,137,0.0,1.0,95,0.00,,FEW025,0.00,VWS V14.01,2013-01-14 13:28:00,
2013-01-14 08:33:00,65.4,64.5,30.18,SE,133,0.0,1.0,97,0.00,,FEW025,0.00,VWS V14.01,2013-01-14 13:33:00,
2013-01-14 08:38:00,65.8,64.6,30.18,SE,138,0.0,1.0,96,0.00,,FEW025,0.00,VWS V14.01,2013-01-14 13:38:00,
2013-01-14 08:43:00,66.2,65.3,30.18,SE,129,0.0,1.0,97,0.00,,FEW025,0.00,VWS V14.01,2013-01-14 13:43:00,
2013-01-14 08:48:00,66.6,65.4,30.18,SE,139,0.0,1.0,96,0.00,,FEW025,0.00,VWS V14.01,2013-01-14 13:48:00,
2013-01-14 08:53:00,67.0,65.5,30.18,SSE,159,0.0,4.0,95,0.00,,FEW025,0.00,VWS V14.01,2013-01-14 13:53:00,
2013-01-14 08:58:00,67.4,65.9,30.18,SSE,160,0.0,4.0,95,0.00,,FEW025,0.00,VWS V14.01,2013-01-14 13:58:00,
2013-01-14 09:04:00,67.8,66.3,30.18,SSE,155,0.0,0.0,95,0.00,,BKN030,0.00,VWS V14.01,2013-01-14 14:04:00,
2013-01-14 09:09:00,68.3,66.8,30.18,SE,136,1.0,4.0,95,0.00,,BKN030,0.00,VWS V14.01,2013-01-14 14:09:00,
2013-01-14 09:14:00,68.6,66.8,30.18,SE,132,0.0,4.0,94,0.00,,BKN030,0.00,VWS V14.01,2013-01-14 14:14:00,
2013-01-14 09:19:00,69.0,66.9,30.19,SE,134,2.0,4.0,93,0.00,,BKN030,0.00,VWS V14.01,2013-01-14 14:19:00,
2013-01-14 09:24:00,69.3,67.5,30.18,East,100,4.0,5.0,94,0.00,,BKN030,0.00,VWS V14.01,2013-01-14 14:24:00,
2013-01-14 09:29:00,70.0,66.6,30.19,ESE,112,2.0,6.0,89,0.00,,BKN030,0.00,VWS V14.01,2013-01-14 14:29:00,
2013-01-14 09:34:00,70.9,67.2,30.19,ESE,117,3.0,6.0,88,0.00,,BKN030,0.00,VWS V14.01,2013-01-14 14:34:00,
2013-01-14 09:39:00,72.0,67.6,30.19,ESE,111,3.0,6.0,86,0.00,,BKN030,0.00,VWS V14.01,2013-01-14 14:39:00,
2013-01-14 09:44:00,72.8,67.0,30.20,East,98,6.0,8.0,82,0.00,,BKN030,0.00,VWS V14.01,2013-01-14 14:44:00,
2013-01-14 09:49:00,73.3,67.5,30.19,SE,135,2.0,8.0,82,0.00,,BKN030,0.00,VWS V14.01,2013-01-14 14:49:00,
2013-01-14 09:54:00,73.5,67.3,30.19,ESE,117,3.0,8.0,81,0.00,,BKN030,0.00,VWS V14.01,2013-01-14 14:54:00,
2013-01-14 09:59:00,73.9,67.7,30.20,ESE,108,6.0,8.0,81,0.00,,BKN030,0.00,VWS V14.01,2013-01-14 14:59:00,
2013-01-14 10:04:00,74.0,67.4,30.20,ESE,123,2.0,8.0,80,0.00,,FEW028,0.00,VWS V14.01,2013-01-14 15:04:00,
2013-01-14 10:09:00,74.1,67.5,30.20,ESE,123,7.0,10.0,80,0.00,,FEW028,0.00,VWS V14.01,2013-01-14 15:09:00,
2013-01-14 10:14:00,74.2,67.6,30.20,East,90,0.0,10.0,80,0.00,,FEW028,0.00,VWS V14.01,2013-01-14 15:14:00,
2013-01-14 10:19:00,74.3,68.1,30.19,ESE,114,6.0,10.0,81,0.00,,FEW028,0.00,VWS V14.01,2013-01-14 15:19:00,
2013-01-14 10:24:00,74.4,68.2,30.19,East,100,6.0,10.0,81,0.00,,FEW028,0.00,VWS V14.01,2013-01-14 15:24:00,
2013-01-14 10:29:00,74.5,68.3,30.19,East,89,7.0,13.0,81,0.00,,FEW028,0.00,VWS V14.01,2013-01-14 15:29:00,
2013-01-14 10:34:00,74.6,67.7,30.19,SE,135,5.0,14.0,79,0.00,,FEW028,0.00,VWS V14.01,2013-01-14 15:34:00,
2013-01-14 10:39:00,74.7,67.8,30.19,SE,144,4.0,14.0,79,0.00,,FEW028,0.00,VWS V14.01,2013-01-14 15:39:00,
2013-01-14 10:44:00,74.8,67.9,30.19,ESE,117,5.0,14.0,79,0.00,,FEW028,0.00,VWS V14.01,2013-01-14 15:44:00,
2013-01-14 10:49:00,74.9,67.6,30.20,ESE,107,8.0,15.0,78,0.00,,FEW028,0.00,VWS V14.01,2013-01-14 15:49:00,
2013-01-14 10:54:00,75.1,67.8,30.20,ESE,116,5.0,15.0,78,0.00,,FEW028,0.00,VWS V14.01,2013-01-14 15:54:00,
2013-01-14 10:59:00,75.2,67.5,30.20,ESE,111,9.0,15.0,77,0.00,,FEW028,0.00,VWS V14.01,2013-01-14 15:59:00,
2013-01-14 11:04:00,75.4,67.7,30.20,SE,145,3.0,11.0,77,0.00,,BKN044,0.00,VWS V14.01,2013-01-14 16:04:00,
2013-01-14 11:09:00,75.7,68.0,30.20,SE,129,5.0,11.0,77,0.00,,BKN044,0.00,VWS V14.01,2013-01-14 16:09:00,
2013-01-14 11:14:00,76.0,68.3,30.19,East,94,3.0,11.0,77,0.00,,BKN044,0.00,VWS V14.01,2013-01-14 16:14:00,
2013-01-14 11:19:00,76.2,68.1,30.19,ESE,122,12.0,12.0,76,0.00,,BKN044,0.00,VWS V14.01,2013-01-14 16:19:00,
2013-01-14 11:24:00,76.3,67.8,30.19,ESE,119,4.0,12.0,75,0.00,,BKN044,0.00,VWS V14.01,2013-01-14 16:24:00,
2013-01-14 11:29:00,76.6,68.1,30.18,ESE,106,6.0,12.0,75,0.00,,BKN044,0.00,VWS V14.01,2013-01-14 16:29:00,
2013-01-14 11:34:00,76.7,68.2,30.17,ESE,109,9.0,14.0,75,0.00,,BKN044,0.00,VWS V14.01,2013-01-14 16:34:00,
2013-01-14 11:39:00,77.0,68.1,30.18,SSE,166,3.0,14.0,74,0.00,,BKN044,0.00,VWS V14.01,2013-01-14 16:39:00,
2013-01-14 11:44:00,77.2,67.9,30.17,ESE,116,9.0,14.0,73,0.00,,BKN044,0.00,VWS V14.01,2013-01-14 16:44:00,
2013-01-14 11:49:00,77.4,67.7,30.17,ESE,116,8.0,15.0,72,0.00,,BKN044,0.00,VWS V14.01,2013-01-14 16:49:00,
2013-01-14 11:54:00,77.5,67.8,30.18,ESE,123,5.0,15.0,72,0.00,,BKN044,0.00,VWS V14.01,2013-01-14 16:54:00,
2013-01-14 11:59:00,77.6,67.9,30.17,SE,144,6.0,15.0,72,0.00,,BKN044,0.00,VWS V14.01,2013-01-14 16:59:00,
2013-01-14 12:04:00,77.8,68.1,30.17,ESE,118,9.0,11.0,72,0.00,,BKN047,0.00,VWS V14.01,2013-01-14 17:04:00,
2013-01-14 12:09:00,77.8,68.5,30.17,ESE,105,3.0,12.0,73,0.00,,BKN047,0.00,VWS V14.01,2013-01-14 17:09:00,
2013-01-14 12:14:00,77.9,68.6,30.17,SSE,148,4.0,12.0,73,0.00,,BKN047,0.00,VWS V14.01,2013-01-14 17:14:00,
2013-01-14 12:19:00,78.0,68.7,30.17,SSE,150,3.0,12.0,73,0.00,,BKN047,0.00,VWS V14.01,2013-01-14 17:19:00,
2013-01-14 12:24:00,78.0,68.7,30.16,SE,124,3.0,12.0,73,0.00,,BKN047,0.00,VWS V14.01,2013-01-14 17:24:00,
2013-01-14 12:29:00,78.1,68.8,30.17,SE,124,2.0,12.0,73,0.00,,BKN047,0.00,VWS V14.01,2013-01-14 17:29:00,
2013-01-14 12:34:00,78.3,68.5,30.16,ESE,119,7.0,13.0,72,0.00,,BKN047,0.00,VWS V14.01,2013-01-14 17:34:00,
2013-01-14 12:39:00,78.3,68.1,30.15,SE,139,7.0,13.0,71,0.00,,BKN047,0.00,VWS V14.01,2013-01-14 17:39:00,
2013-01-14 12:44:00,78.2,68.4,30.16,ESE,116,11.0,13.0,72,0.00,,BKN047,0.00,VWS V14.01,2013-01-14 17:44:00,
2013-01-14 12:49:00,78.2,68.4,30.16,ESE,109,8.0,13.0,72,0.00,,BKN047,0.00,VWS V14.01,2013-01-14 17:49:00,
2013-01-14 12:54:00,78.1,67.9,30.15,ESE,120,2.0,13.0,71,0.00,,BKN047,0.00,VWS V14.01,2013-01-14 17:54:00,
2013-01-14 12:59:00,77.8,68.5,30.15,ESE,114,11.0,13.0,73,0.00,,BKN047,0.00,VWS V14.01,2013-01-14 17:59:00,
2013-01-14 13:04:00,77.7,68.4,30.15,ESE,119,10.0,13.0,73,0.00,,SCT025,0.00,VWS V14.01,2013-01-14 18:04:00,
2013-01-14 13:09:00,77.8,68.1,30.15,East,87,6.0,14.0,72,0.00,,SCT025,0.00,VWS V14.01,2013-01-14 18:09:00,
2013-01-14 13:14:00,77.9,68.2,30.14,SE,129,8.0,14.0,72,0.00,,SCT025,0.00,VWS V14.01,2013-01-14 18:14:00,
2013-01-14 13:19:00,78.0,68.2,30.14,ESE,118,11.0,14.0,72,0.00,,SCT025,0.00,VWS V14.01,2013-01-14 18:19:00,
2013-01-14 13:24:00,78.2,68.4,30.14,ESE,109,6.0,14.0,72,0.00,,SCT025,0.00,VWS V14.01,2013-01-14 18:24:00,
2013-01-14 13:29:00,78.4,69.0,30.15,ESE,119,7.0,14.0,73,0.00,,SCT025,0.00,VWS V14.01,2013-01-14 18:29:00,
2013-01-14 13:34:00,78.6,68.4,30.14,ESE,105,4.0,14.0,71,0.00,,SCT025,0.00,VWS V14.01,2013-01-14 18:34:00,
2013-01-14 13:39:00,78.6,68.4,30.15,SE,124,5.0,14.0,71,0.00,,SCT025,0.00,VWS V14.01,2013-01-14 18:39:00,
2013-01-14 13:44:00,78.7,68.5,30.15,ESE,109,5.0,14.0,71,0.00,,SCT025,0.00,VWS V14.01,2013-01-14 18:44:00,
2013-01-14 13:49:00,78.7,69.3,30.15,ESE,120,5.0,14.0,73,0.00,,SCT025,0.00,VWS V14.01,2013-01-14 18:49:00,
2013-01-14 13:54:00,78.8,68.2,30.14,SE,129,9.0,14.0,70,0.00,,SCT025,0.00,VWS V14.01,2013-01-14 18:54:00,
2013-01-14 13:59:00,78.7,68.1,30.14,South,171,7.0,14.0,70,0.00,,SCT025,0.00,VWS V14.01,2013-01-14 18:59:00,
2013-01-14 14:04:00,78.9,68.7,30.15,SSE,162,6.0,14.0,71,0.00,,CLR,0.00,VWS V14.01,2013-01-14 19:04:00,
2013-01-14 14:09:00,78.9,68.7,30.15,East,98,10.0,14.0,71,0.00,,CLR,0.00,VWS V14.01,2013-01-14 19:09:00,
2013-01-14 14:14:00,78.6,68.4,30.15,ESE,115,10.0,14.0,71,0.00,,CLR,0.00,VWS V14.01,2013-01-14 19:14:00,
2013-01-14 14:19:00,78.4,68.2,30.14,SSE,149,2.0,14.0,71,0.00,,CLR,0.00,VWS V14.01,2013-01-14 19:19:00,
2013-01-14 14:24:00,78.3,68.5,30.15,SSE,151,7.0,14.0,72,0.00,,CLR,0.00,VWS V14.01,2013-01-14 19:24:00,
2013-01-14 14:29:00,78.5,68.3,30.14,ESE,122,8.0,14.0,71,0.00,,CLR,0.00,VWS V14.01,2013-01-14 19:29:00,
2013-01-14 14:34:00,78.7,68.5,30.14,East,83,5.0,14.0,71,0.00,,CLR,0.00,VWS V14.01,2013-01-14 19:34:00,
2013-01-14 14:39:00,78.8,68.2,30.15,SE,141,4.0,14.0,70,0.00,,CLR,0.00,VWS V14.01,2013-01-14 19:39:00,
2013-01-14 14:44:00,78.9,68.7,30.15,SE,141,7.0,14.0,71,0.00,,CLR,0.00,VWS V14.01,2013-01-14 19:44:00,
2013-01-14 14:49:00,78.9,68.7,30.15,East,95,5.0,14.0,71,0.00,,CLR,0.00,VWS V14.01,2013-01-14 19:49:00,
2013-01-14 14:54:00,78.6,68.4,30.15,ESE,117,9.0,14.0,71,0.00,,CLR,0.00,VWS V14.01,2013-01-14 19:54:00,
2013-01-14 14:59:00,78.5,68.3,30.15,East,97,8.0,14.0,71,0.00,,CLR,0.00,VWS V14.01,2013-01-14 19:59:00,
2013-01-14 15:04:00,78.5,68.3,30.15,ESE,122,9.0,11.0,71,0.00,,CLR,0.00,VWS V14.01,2013-01-14 20:04:00,
2013-01-14 15:09:00,78.3,68.1,30.15,East,91,6.0,14.0,71,0.00,,CLR,0.00,VWS V14.01,2013-01-14 20:09:00,
2013-01-14 15:14:00,78.2,68.0,30.15,East,92,5.0,14.0,71,0.00,,CLR,0.00,VWS V14.01,2013-01-14 20:14:00,
2013-01-14 15:19:00,78.0,68.2,30.16,SE,126,5.0,14.0,72,0.00,,CLR,0.00,VWS V14.01,2013-01-14 20:19:00,
2013-01-14 15:24:00,77.9,68.2,30.15,SE,128,7.0,14.0,72,0.00,,CLR,0.00,VWS V14.01,2013-01-14 20:24:00,
2013-01-14 15:29:00,77.8,68.1,30.16,ENE,62,5.0,14.0,72,0.00,,CLR,0.00,VWS V14.01,2013-01-14 20:29:00,
2013-01-14 15:34:00,77.5,68.2,30.15,ENE,78,4.0,14.0,73,0.00,,CLR,0.00,VWS V14.01,2013-01-14 20:34:00,
2013-01-14 15:39:00,77.4,68.1,30.16,ESE,118,8.0,14.0,73,0.00,,CLR,0.00,VWS V14.01,2013-01-14 20:39:00,
2013-01-14 15:44:00,77.4,67.3,30.16,SE,131,6.0,14.0,71,0.00,,CLR,0.00,VWS V14.01,2013-01-14 20:44:00,
2013-01-14 15:49:00,77.3,67.6,30.16,ESE,102,5.0,14.0,72,0.00,,CLR,0.00,VWS V14.01,2013-01-14 20:49:00,
2013-01-14 15:54:00,77.3,67.6,30.15,SE,128,3.0,14.0,72,0.00,,CLR,0.00,VWS V14.01,2013-01-14 20:54:00,
2013-01-14 15:59:00,77.4,68.1,30.16,SE,125,7.0,14.0,73,0.00,,CLR,0.00,VWS V14.01,2013-01-14 20:59:00,
2013-01-14 16:04:00,77.4,67.7,30.16,ESE,104,4.0,15.0,72,0.00,,CLR,0.00,VWS V14.01,2013-01-14 21:04:00,
2013-01-14 16:09:00,77.4,67.7,30.17,ESE,121,7.0,15.0,72,0.00,,CLR,0.00,VWS V14.01,2013-01-14 21:09:00,
2013-01-14 16:14:00,77.2,67.5,30.17,SE,139,4.0,15.0,72,0.00,,CLR,0.00,VWS V14.01,2013-01-14 21:14:00,
2013-01-14 16:19:00,77.2,67.9,30.16,ESE,110,13.0,15.0,73,0.00,,CLR,0.00,VWS V14.01,2013-01-14 21:19:00,
2013-01-14 16:24:00,77.1,68.2,30.16,SE,143,6.0,15.0,74,0.00,,CLR,0.00,VWS V14.01,2013-01-14 21:24:00,
2013-01-14 16:29:00,77.1,67.8,30.17,ESE,123,4.0,15.0,73,0.00,,CLR,0.00,VWS V14.01,2013-01-14 21:29:00,
2013-01-14 16:34:00,77.1,67.8,30.16,ESE,111,6.0,15.0,73,0.00,,CLR,0.00,VWS V14.01,2013-01-14 21:34:00,
2013-01-14 16:39:00,77.0,68.1,30.16,ESE,117,3.0,15.0,74,0.00,,CLR,0.00,VWS V14.01,2013-01-14 21:39:00,
2013-01-14 16:44:00,76.8,67.9,30.16,ESE,109,11.0,15.0,74,0.00,,CLR,0.00,VWS V14.01,2013-01-14 21:44:00,
2013-01-14 16:49:00,76.6,68.1,30.17,ESE,109,8.0,15.0,75,0.00,,CLR,0.00,VWS V14.01,2013-01-14 21:49:00,
2013-01-14 16:54:00,76.5,68.0,30.17,SE,136,4.0,15.0,75,0.00,,CLR,0.00,VWS V14.01,2013-01-14 21:54:00,
2013-01-14 16:59:00,76.4,67.9,30.17,East,100,12.0,15.0,75,0.00,,CLR,0.00,VWS V14.01,2013-01-14 21:59:00,
2013-01-14 17:04:00,76.2,67.7,30.17,East,94,8.0,10.0,75,0.00,,CLR,0.00,VWS V14.01,2013-01-14 22:04:00,
2013-01-14 17:09:00,76.1,67.6,30.17,SE,137,4.0,12.0,75,0.00,,CLR,0.00,VWS V14.01,2013-01-14 22:09:00,
2013-01-14 17:14:00,75.9,67.4,30.17,SE,125,3.0,12.0,75,0.00,,CLR,0.00,VWS V14.01,2013-01-14 22:14:00,
2013-01-14 17:19:00,75.8,67.7,30.17,SE,127,6.0,12.0,76,0.00,,CLR,0.00,VWS V14.01,2013-01-14 22:19:00,
2013-01-14 17:24:00,75.6,67.5,30.18,SE,129,2.0,12.0,76,0.00,,CLR,0.00,VWS V14.01,2013-01-14 22:24:00,
2013-01-14 17:29:00,75.5,68.2,30.17,ESE,111,5.0,12.0,78,0.00,,CLR,0.00,VWS V14.01,2013-01-14 22:29:00,
2013-01-14 17:34:00,75.3,67.6,30.18,SE,137,6.0,12.0,77,0.00,,CLR,0.00,VWS V14.01,2013-01-14 22:34:00,
2013-01-14 17:39:00,75.1,67.4,30.18,ESE,118,3.0,12.0,77,0.00,,CLR,0.00,VWS V14.01,2013-01-14 22:39:00,
2013-01-14 17:44:00,75.0,67.3,30.19,SE,142,2.0,12.0,77,0.00,,CLR,0.00,VWS V14.01,2013-01-14 22:44:00,
2013-01-14 17:49:00,74.9,67.6,30.18,SSE,152,0.0,12.0,78,0.00,,CLR,0.00,VWS V14.01,2013-01-14 22:49:00,
2013-01-14 17:54:00,74.8,67.5,30.19,SE,133,4.0,12.0,78,0.00,,CLR,0.00,VWS V14.01,2013-01-14 22:54:00,
2013-01-14 17:59:00,74.7,67.4,30.19,ESE,114,2.0,12.0,78,0.00,,CLR,0.00,VWS V14.01,2013-01-14 22:59:00,
2013-01-14 18:04:00,74.5,67.2,30.19,SE,128,3.0,6.0,78,0.00,,CLR,0.00,VWS V14.01,2013-01-14 23:04:00,
2013-01-14 18:09:00,74.3,67.4,30.19,ESE,120,2.0,6.0,79,0.00,,CLR,0.00,VWS V14.01,2013-01-14 23:09:00,
2013-01-14 18:14:00,74.2,67.3,30.19,ESE,114,4.0,9.0,79,0.00,,CLR,0.00,VWS V14.01,2013-01-14 23:14:00,
2013-01-14 18:19:00,74.1,67.2,30.18,ESE,115,5.0,9.0,79,0.00,,CLR,0.00,VWS V14.01,2013-01-14 23:19:00,
2013-01-14 18:24:00,74.0,67.1,30.19,SE,136,3.0,9.0,79,0.00,,CLR,0.00,VWS V14.01,2013-01-14 23:24:00,
2013-01-14 18:29:00,73.9,67.3,30.19,ESE,120,5.0,9.0,80,0.00,,CLR,0.00,VWS V14.01,2013-01-14 23:29:00,
2013-01-14 18:34:00,73.8,67.2,30.19,ESE,122,2.0,9.0,80,0.00,,CLR,0.00,VWS V14.01,2013-01-14 23:34:00,
2013-01-14 18:39:00,73.8,68.0,30.19,ESE,122,3.0,9.0,82,0.00,,CLR,0.00,VWS V14.01,2013-01-14 23:39:00,
2013-01-14 18:44:00,73.7,67.5,30.19,ESE,121,4.0,9.0,81,0.00,,CLR,0.00,VWS V14.01,2013-01-14 23:44:00,
2013-01-14 18:49:00,73.6,67.8,30.19,SE,127,3.0,9.0,82,0.00,,CLR,0.00,VWS V14.01,2013-01-14 23:49:00,
2013-01-14 18:54:00,73.5,67.7,30.19,ESE,121,3.0,9.0,82,0.00,,CLR,0.00,VWS V14.01,2013-01-14 23:54:00,
2013-01-14 18:59:00,73.4,67.9,30.19,ESE,116,1.0,9.0,83,0.00,,CLR,0.00,VWS V14.01,2013-01-14 23:59:00,
2013-01-14 19:04:00,73.4,67.9,30.19,ESE,119,4.0,5.0,83,0.00,,CLR,0.00,VWS V14.01,2013-01-15 00:04:00,
2013-01-14 19:09:00,73.3,68.2,30.19,ESE,113,3.0,7.0,84,0.00,,CLR,0.00,VWS V14.01,2013-01-15 00:09:00,
2013-01-14 19:14:00,73.2,67.7,30.19,SE,124,3.0,7.0,83,0.00,,CLR,0.00,VWS V14.01,2013-01-15 00:14:00,
2013-01-14 19:19:00,73.2,67.7,30.19,ESE,113,1.0,7.0,83,0.00,,CLR,0.00,VWS V14.01,2013-01-15 00:19:00,
2013-01-14 19:24:00,73.1,67.3,30.19,ESE,116,5.0,7.0,82,0.00,,CLR,0.00,VWS V14.01,2013-01-15 00:24:00,
2013-01-14 19:29:00,73.0,67.5,30.19,SE,132,0.0,7.0,83,0.00,,CLR,0.00,VWS V14.01,2013-01-15 00:29:00,
2013-01-14 19:34:00,73.0,67.2,30.20,ESE,122,5.0,7.0,82,0.00,,CLR,0.00,VWS V14.01,2013-01-15 00:34:00,
2013-01-14 19:39:00,73.0,67.2,30.19,ESE,112,5.0,7.0,82,0.00,,CLR,0.00,VWS V14.01,2013-01-15 00:39:00,
2013-01-14 19:44:00,72.9,67.1,30.19,SE,130,5.0,7.0,82,0.00,,CLR,0.00,VWS V14.01,2013-01-15 00:44:00,
2013-01-14 19:49:00,72.8,67.0,30.18,ESE,116,0.0,7.0,82,0.00,,CLR,0.00,VWS V14.01,2013-01-15 00:49:00,
2013-01-14 19:54:00,72.8,67.0,30.19,ESE,116,1.0,7.0,82,0.00,,CLR,0.00,VWS V14.01,2013-01-15 00:54:00,
2013-01-14 19:59:00,72.7,67.2,30.19,SE,135,0.0,7.0,83,0.00,,CLR,0.00,VWS V14.01,2013-01-15 00:59:00,
2013-01-14 20:04:00,72.7,66.9,30.18,SE,138,3.0,4.0,82,0.00,,CLR,0.00,VWS V14.01,2013-01-15 01:04:00,
2013-01-14 20:09:00,72.6,66.8,30.18,ESE,121,2.0,5.0,82,0.00,,CLR,0.00,VWS V14.01,2013-01-15 01:09:00,
2013-01-14 20:14:00,72.6,66.8,30.18,SE,135,1.0,5.0,82,0.00,,CLR,0.00,VWS V14.01,2013-01-15 01:14:00,
2013-01-14 20:19:00,72.5,66.7,30.19,ESE,120,0.0,5.0,82,0.00,,CLR,0.00,VWS V14.01,2013-01-15 01:19:00,
2013-01-14 20:24:00,72.5,66.7,30.18,ESE,120,2.0,5.0,82,0.00,,CLR,0.00,VWS V14.01,2013-01-15 01:24:00,
2013-01-14 20:29:00,72.5,66.7,30.18,ESE,122,2.0,5.0,82,0.00,,CLR,0.00,VWS V14.01,2013-01-15 01:29:00,
2013-01-14 20:34:00,72.5,66.7,30.18,ESE,123,2.0,5.0,82,0.00,,CLR,0.00,VWS V14.01,2013-01-15 01:34:00,
2013-01-14 20:39:00,72.4,66.6,30.19,ESE,123,0.0,5.0,82,0.00,,CLR,0.00,VWS V14.01,2013-01-15 01:39:00,
2013-01-14 20:44:00,72.3,66.5,30.18,SE,128,2.0,6.0,82,0.00,,CLR,0.00,VWS V14.01,2013-01-15 01:44:00,
2013-01-14 20:49:00,72.3,66.5,30.18,SE,130,4.0,7.0,82,0.00,,CLR,0.00,VWS V14.01,2013-01-15 01:49:00,
2013-01-14 20:54:00,72.3,66.5,30.18,ESE,122,2.0,7.0,82,0.00,,CLR,0.00,VWS V14.01,2013-01-15 01:54:00,
2013-01-14 20:59:00,72.3,66.2,30.18,SSE,152,2.0,7.0,81,0.00,,CLR,0.00,VWS V14.01,2013-01-15 01:59:00,
2013-01-14 21:04:00,72.2,66.4,30.18,SE,127,4.0,4.0,82,0.00,,CLR,0.00,VWS V14.01,2013-01-15 02:04:00,
2013-01-14 21:09:00,72.2,66.4,30.17,SE,135,2.0,4.0,82,0.00,,CLR,0.00,VWS V14.01,2013-01-15 02:09:00,
2013-01-14 21:14:00,72.3,66.5,30.18,ESE,119,2.0,5.0,82,0.00,,CLR,0.00,VWS V14.01,2013-01-15 02:14:00,
2013-01-14 21:19:00,72.2,66.4,30.18,ESE,118,0.0,5.0,82,0.00,,CLR,0.00,VWS V14.01,2013-01-15 02:19:00,
2013-01-14 21:24:00,72.2,66.4,30.18,ESE,118,3.0,5.0,82,0.00,,CLR,0.00,VWS V14.01,2013-01-15 02:24:00,
2013-01-14 21:29:00,72.2,66.4,30.18,South,170,0.0,5.0,82,0.00,,CLR,0.00,VWS V14.01,2013-01-15 02:29:00,
2013-01-14 21:34:00,72.2,66.8,30.18,SSE,168,0.0,5.0,83,0.00,,CLR,0.00,VWS V14.01,2013-01-15 02:34:00,
2013-01-14 21:39:00,72.2,66.8,30.17,South,169,0.0,5.0,83,0.00,,CLR,0.00,VWS V14.01,2013-01-15 02:39:00,
2013-01-14 21:44:00,72.2,66.8,30.18,SE,138,0.0,5.0,83,0.00,,CLR,0.00,VWS V14.01,2013-01-15 02:44:00,
2013-01-14 21:49:00,72.1,66.7,30.18,SE,137,0.0,5.0,83,0.00,,CLR,0.00,VWS V14.01,2013-01-15 02:49:00,
2013-01-14 21:54:00,72.2,66.8,30.18,SE,137,0.0,5.0,83,0.00,,CLR,0.00,VWS V14.01,2013-01-15 02:54:00,
2013-01-14 21:59:00,72.1,66.7,30.18,SE,138,0.0,5.0,83,0.00,,CLR,0.00,VWS V14.01,2013-01-15 02:59:00,
2013-01-14 22:04:00,72.1,66.7,30.18,SE,137,0.0,0.0,83,0.00,,CLR,0.00,VWS V14.01,2013-01-15 03:04:00,
2013-01-14 22:09:00,72.0,66.2,30.18,SE,138,0.0,0.0,82,0.00,,CLR,0.00,VWS V14.01,2013-01-15 03:09:00,
2013-01-14 22:14:00,71.9,66.1,30.18,SE,140,0.0,1.0,82,0.00,,CLR,0.00,VWS V14.01,2013-01-15 03:14:00,
2013-01-14 22:19:00,71.8,66.4,30.18,SE,140,0.0,1.0,83,0.00,,CLR,0.00,VWS V14.01,2013-01-15 03:19:00,
2013-01-14 22:24:00,71.8,66.0,30.18,SE,142,0.0,1.0,82,0.00,,CLR,0.00,VWS V14.01,2013-01-15 03:24:00,
2013-01-14 22:29:00,71.7,65.9,30.17,SE,141,0.0,1.0,82,0.00,,CLR,0.00,VWS V14.01,2013-01-15 03:29:00,
2013-01-14 22:34:00,71.6,66.2,30.18,SE,139,0.0,1.0,83,0.00,,CLR,0.00,VWS V14.01,2013-01-15 03:34:00,
2013-01-14 22:39:00,71.4,65.6,30.18,SE,138,0.0,1.0,82,0.00,,CLR,0.00,VWS V14.01,2013-01-15 03:39:00,
2013-01-14 22:44:00,71.4,65.6,30.18,SE,141,0.0,1.0,82,0.00,,CLR,0.00,VWS V14.01,2013-01-15 03:44:00,
2013-01-14 22:50:00,71.2,65.4,30.17,SE,142,0.0,1.0,82,0.00,,CLR,0.00,VWS V14.01,2013-01-15 03:50:00,
2013-01-14 22:55:00,71.1,65.7,30.17,SE,141,0.0,1.0,83,0.00,,CLR,0.00,VWS V14.01,2013-01-15 03:55:00,
2013-01-14 23:00:00,71.0,65.6,30.17,SE,144,0.0,1.0,83,0.00,,CLR,0.00,VWS V14.01,2013-01-15 04:00:00,
2013-01-14 23:05:00,71.0,65.6,30.17,SE,143,0.0,0.0,83,0.00,,SCT024,0.00,VWS V14.01,2013-01-15 04:05:00,
2013-01-14 23:10:00,70.8,65.4,30.18,SE,142,0.0,1.0,83,0.00,,SCT024,0.00,VWS V14.01,2013-01-15 04:10:00,
2013-01-14 23:15:00,70.7,65.6,30.17,SE,142,0.0,1.0,84,0.00,,SCT024,0.00,VWS V14.01,2013-01-15 04:15:00,
2013-01-14 23:20:00,70.7,66.0,30.16,SE,142,0.0,1.0,85,0.00,,SCT024,0.00,VWS V14.01,2013-01-15 04:20:00,
2013-01-14 23:25:00,70.6,65.5,30.17,SE,140,0.0,1.0,84,0.00,,SCT024,0.00,VWS V14.01,2013-01-15 04:25:00,
2013-01-14 23:30:00,70.5,65.4,30.16,SE,142,0.0,1.0,84,0.00,,SCT024,0.00,VWS V14.01,2013-01-15 04:30:00,
2013-01-14 23:35:00,70.4,65.3,30.17,SE,142,0.0,1.0,84,0.00,,SCT024,0.00,VWS V14.01,2013-01-15 04:35:00,
2013-01-14 23:40:00,70.2,64.8,30.17,SE,142,0.0,1.0,83,0.00,,SCT024,0.00,VWS V14.01,2013-01-15 04:40:00,
2013-01-14 23:45:00,69.9,64.8,30.17,SE,141,0.0,1.0,84,0.00,,SCT024,0.00,VWS V14.01,2013-01-15 04:45:00,
2013-01-14 23:50:00,69.8,64.8,30.17,SE,141,0.0,1.0,84,0.00,,SCT024,0.00,VWS V14.01,2013-01-15 04:50:00,
2013-01-14 23:55:00,69.7,64.7,30.17,SE,141,0.0,1.0,84,0.00,,SCT024,0.00,VWS V14.01,2013-01-15 04:55:00,